Flag for U.S.A. Weather past 2 weeks in Ontario, California, U.S.A.

Now
66 °F

Clear.


Feels Like: 66 °F
Forecast: 54 / 85 °F
Wind: 6 mph from Southwest

Location: Ontario International Airport

Current Time: Mar 29, 2015 at 11:03:51 PM

Latest Report: Mar 29, 2015 at 9:53 PM


Visibility: 10 mi

Pressure: 29.99 "Hg

Humidity: 56%

Dew point: 50 °F

Location of OntarioLocation

Historic Weather in Ontario — Graph

°F

Ontario temperature yesterday

Maximum temperature yesterday: 88 °F (at 1:53 PM)
Minimum temperature yesterday: 61 °F (at 4:53 AM)
Average temperature yesterday: 73 °F

Past Weeks' High & Low Weather Summary

 TemperatureHumidityPressure
High92 °F (Mar 26, 2:53 PM)97% (Mar 21, 6:53 AM)30.18 "Hg (Mar 21, 6:53 AM)
Low53 °F (Mar 24, 5:53 AM)9% (Mar 26, 1:53 PM)29.84 "Hg (Mar 16, 2:53 PM)
Average69 °F47%30.00 "Hg
* Reported Mar 14 9:53 PM — Mar 29 9:53 PM, Ontario, Weather by CustomWeather, © 2015

Note: Actual official high and low records may vary slightly from our data, if they occured in-between our weather recording intervals... More about our weather records

Advertising

Ontario weather history for previous 24 hours

 ConditionsComfort  
Time TempWeatherWind HumidityBarometerVisibility
9:53 PM
Sun, Mar 29
66 °FClear.6 mph56%29.99 "Hg10 mi
8:53 PM68 °FClear.9 mph49%29.98 "Hg10 mi
7:53 PM73 °FSunny.9 mph33%29.96 "Hg10 mi
6:53 PM76 °FSunny.13 mph32%29.94 "Hg10 mi
5:53 PM81 °FPassing clouds.14 mph23%29.92 "Hg10 mi
4:53 PM84 °FPassing clouds.14 mph22%29.92 "Hg10 mi
3:53 PM85 °FScattered clouds.10 mph22%29.92 "Hg10 mi
2:53 PM87 °FScattered clouds.13 mph20%29.93 "Hg10 mi
1:53 PM88 °FScattered clouds.10 mph14%29.96 "Hg10 mi
12:53 PM84 °FPartly sunny.7 mph16%29.98 "Hg10 mi
11:53 AM79 °FPartly sunny.6 mph21%30.00 "Hg10 mi
10:53 AM76 °FPartly sunny.No wind31%30.02 "Hg10 mi
9:53 AM69 °FPartly sunny.No wind39%30.03 "Hg10 mi
8:53 AM63 °FPartly sunny.No wind54%30.04 "Hg10 mi
7:53 AM58 °FScattered clouds.No wind72%30.04 "Hg10 mi
6:53 AM56 °FPassing clouds.No wind65%30.03 "Hg10 mi
5:53 AM57 °FPassing clouds.No wind55%30.00 "Hg10 mi
4:53 AM57 °FPassing clouds.No wind53%29.98 "Hg10 mi
3:53 AM59 °FPassing clouds.3 mph51%29.98 "Hg10 mi
2:53 AM62 °FPassing clouds.No wind50%29.98 "Hg10 mi
1:53 AM63 °FPassing clouds.No wind52%30.00 "Hg10 mi
12:53 AM66 °FPassing clouds.No wind52%30.01 "Hg10 mi
11:53 PM
Sat, Mar 28
67 °FPassing clouds.No wind53%30.01 "Hg10 mi
Weather by CustomWeather, © 2015

See weather overviewHow to use our weather pages